星链-32078 (STARLINK-32078)

导读

STARLINK-32078是美国SpaceX公司星链星座中的一颗低轨通信卫星,于2024年8月2日发射入轨。星链星座旨在为全球提供高速低延迟宽带互联网服务,尤其覆盖基础设施匮乏的偏远地区。该卫星采用平板设计,搭载氪工质霍尔推进器,具备自主避撞能力,寿命末期会主动离轨并在大气层中焚毁,避免产生太空垃圾。作为星链扩容的一部分,它将进一步提升星座的全球覆盖能力和服务稳定性。

基本信息
目录编号:
60338
目录名称:
STARLINK-32078
国际标识:
2024-136K
轨道中心:
EARTH
卫星名称:
星链-32078 (STARLINK-32078)
卫星全名:
星链-32078 (STARLINK-32078)
卫星状态:
在轨 (已飞行685 天)
发射日期:
2024-08-02 UTC
国别 :
美国 (US)
星等 :
--
轨道信息
数据来源 国际轨道数据 AOE轨道数据
星历时间 2026-06-18T02:01:14+0800
6小时前
查看轨道信息
2026-06-17T08:00:00+0800
1天前
查看轨道信息
半长轴 6853.367km 6853.388km
偏心率 0.0001053 0.0000941
轨道倾角 53.161° 53.161°
近地点辐角 99.098° 80.627°
升交点赤经 330.945° 334.432°
平近点角 261.014° 100.901°
近地点 474.508km 474.606km
远地点 475.952km 475.896km
周期 94.106分钟 94.106分钟
每日圈数 15.301953 15.301882
详细信息
卫星平台:
Starlink v2.0 mini
运营商:
太空探索技术公司
运营商所在国:
美国
制造商(研发单位):
太空探索技术公司
制造商所在国:
美国
使用方式:
暂无
卫星简介
星链(Starlink)计划是由太空探索技术公司(SpaceX)提出的一个巨型低轨卫星互联网星座项目,计划在2019年至2024年间在太空搭建由约1.2万颗卫星组成的“星链”网络,其中1584颗将部署在地球上空550千米处的近地轨道,并从2020年开始工作。该卫星仍在工作。
2D轨道图
3D轨道图
轨道高度分析图
轨道倾角分析图
轨道综合分析图
查看轨道综合分析图